User: anonymous   Login
Location: Akho
(42.3047°N, 44.1844°E)
Time: 16:20:55
(UTC+00:00)
Language:

Cosmos 1408 - Orbit

View from above orbital plane
View from above orbital plane
View from above satellite
View from above satellite

Ground track
Ground track

The orbit data is extracted from the following two-line orbital elements,

1 13552U 82092A   20225.08698288  .00000796  00000-0  27825-4 0  9997
2 13552  82.5658 222.7731 0016316 300.5900  59.3729 15.27894674 72872
Epoch (UTC): 12 August 2020 02:05:15
Eccentricity: 0.0016316
inclination: 82.5658°
perigee height: 471 km
apogee height: 493 km
right ascension of ascending node: 222.7731°
argument of perigee: 300.5900°
revolutions per day: 15.27894674
mean anomaly at epoch: 59.3729°
orbit number at epoch: 7287

The dashed part of the orbit path shows where the satellite is in the earth's shadow,  

DLR